Regional Weather Roundup
Issued by NWS Newport/Morehead, NC

Current Version | Previous Version | Graphics & Text | Print | Product List | Glossary On
Versions: 1 2 3 4 5 6 7 8 9 10 11 12 13 14 15 16 17 18 19 20 21 22 23 24 25 26 27 28 29 30 31 32 33 34 35 36 37 38 39 40 41 42 43 44 45 46 47 48 49 50
000
ASUS42 KMHX 281425
RWRMHX
WEATHER ROUNDUP FOR EASTERN NORTH CAROLINA
NATIONAL WEATHER SERVICE NEWPORT/MOREHEAD CITY NC
1000 AM EDT TUE MAR 28 2017

NOTE: "FAIR" INDICATES FEW OR NO CLOUDS BELOW 12,000 FEET
WITH NO SIGNIFICANT WEATHER AND/OR OBSTRUCTIONS TO VISIBILITY

NCZ015>017-031-032-045>047-102-103-281500-
NORTH COAST

CITY           SKY/WX    TMP DP  RH WIND       PRES   REMARKS
EDENTON        CLOUDY    69  60  74 S10       29.97F
ELIZABETH CITY PTSUNNY   67  59  75 S13       29.96F
KITTY HAWK     NOT AVBL
MANTEO         CLOUDY    66  58  76 SW10      29.98F

$$

NCZ045>047-081-094-103-104-281500-
CENTRAL COAST

CITY           SKY/WX    TMP DP  RH WIND       PRES   REMARKS
FRISCO         CLOUDY    72  61  68 SW9       30.00S HAZE

$$

NCZ095-097-098-100-101-281500-
SOUTHERN COAST

CITY           SKY/WX    TMP DP  RH WIND       PRES   REMARKS
BEAUFORT       SUNNY     71  63  75 SW12      30.00S
CEDAR ISLAND   NOT AVBL
JACKSONVILLE   CLOUDY    70  61  73 SW14G21   29.99R
PINEY ISLAND   MOSUNNY  N/A N/A N/A SW14G23   29.99F
WILMINGTON     PTSUNNY   71  59  65 SW13      30.00R


$$

NCZ011>013-027>030-043-044-078>080-089-090>093-098-281500-
COASTAL PLAIN

CITY           SKY/WX    TMP DP  RH WIND       PRES   REMARKS
AHOSKIE        LGT RAIN  65  59  80 CALM      29.95R
CLINTON        CLOUDY    61  61 100 S3        29.98F
ELIZABETHTOWN  HVY RAIN  62  62  97 S12       29.97F
GOLDSBORO      LGT RAIN  63  63 100 SW10      29.97R
GREENVILLE     CLOUDY    68  59  73 SW9       29.99R
HAVELOCK       PTSUNNY   73  61  65 SW16      30.00S
KENANSVILLE    LGT RAIN  63  61  94 W13       30.01R
KINSTON        CLOUDY    68  57  68 SW9       29.99R
NEW BERN       MOSUNNY   71  61  70 W15       30.00S
RICHLANDS      CLOUDY    67  60  78 SW9       30.01R
ROCKY MOUNT    LGT RAIN  63  60  90 S9        29.95S
WASHINGTON     MOSUNNY   68  59  73 SW9G16    29.97F
WHITEVILLE     LGT RAIN  62  60  94 CALM      30.00S

$$

AMZ130-135-150-152-154-156-158-170-250-252-270-ANZ085-086-088-633-658-670-281500-
MARINE OBSERVATIONS

STATION/POSITION TIME  TEMP    WIND        PRES    WAVE   SWELL
                       AIR SEA DIR/SP/G            HT/PER HT/PER
                 (UTC) (F)     (DEG/KT/KT) (MB)    (FT/S) (FT/S)
CHESAPEAKE LIGHT NOT AVBL
64 E VA BEACH    1350   55 50  210/ 10/ 12 1014.6    4/ 9   3/ 9
DUCK             1400   65 48  210/ 12/ 15 1014.3
2 E DUCK         1400      50                N/A     3/ 9   2/11
OREGON INLET     1400   59 59  200/ 10/ 11 1015.3
13E OREGON INLT  1348      52                N/A     4/ 9   3/ 9
HATTERAS CG      1400   69 61  210/  7/ 10 1015.4
DIAMOND BUOY     1350   72 74  240/ 16/ 19 1016.0    5/ 9   3/ 9
CAPE LOOKOUT     1400   70     230/  9/ 12 1015.7
BEAUFORT LAB     1400   69 60  220/  5/  8 1015.1
30 SE NEW RVR IN 1408   66     260/ 10/ 14 1016.0
30 SE NEW RVR IN 1343      64                N/A     5/10   2/11
27 SE WRIGHTSVLE 1408   68 66  230/ 16/ 21 1015.5
5 SE WRIGHTSVLE  1408   63 60  200/ 12/ 16 1015.6
225 S CAPE HAT   1350   69 72  300/  2/  4 1018.5    5/ 9   5/ 9
41 SE CHARLESTON 1350   71 71  230/ 16/ 19 1016.3    6/10   5/10

$$



USA.gov is the U.S. government's official web portal to all federal, state and local government web resources and services.